owner,sensor,date,latitude,longitude,vertical_datum,wind_speed,wind_to_direction,wind_speed_of_gust,qcFlag 
TCOON,ioos:station:TCOON:031:1,2013-08-01T00:00:00Z,28.4073,-96.7122,0.0,6.2,144.0,7.3,'11111222,11111222,11111222' 
TCOON,ioos:station:TCOON:031:1,2013-08-01T00:06:00Z,28.4073,-96.7122,0.0,6.6,149.0,7.3,'11111222,11111222,11111222' 
TCOON,ioos:station:TCOON:031:1,2013-08-01T00:12:00Z,28.4073,-96.7122,0.0,6.5,148.0,7.6,'11111222,11111222,11111222' 
TCOON,ioos:station:TCOON:031:1,2013-08-01T00:18:00Z,28.4073,-96.7122,0.0,6.8,143.0,7.6,'11111222,11111222,11111222' 
TCOON,ioos:station:TCOON:031:1,2013-08-01T00:24:00Z,28.4073,-96.7122,0.0,6.2,140.0,7.6,'11111222,11111222,11111222' 
TCOON,ioos:station:TCOON:031:1,2013-08-01T00:30:00Z,28.4073,-96.7122,0.0,6.9,147.0,8.2,'11111222,11111222,11111222' 
TCOON,ioos:station:TCOON:031:1,2013-08-01T00:36:00Z,28.4073,-96.7122,0.0,6.9,148.0,8.3,'11111222,11111222,11111222' 
TCOON,ioos:station:TCOON:031:1,2013-08-01T00:42:00Z,28.4073,-96.7122,0.0,6.7,141.0,8.5,'11111222,11111222,11111222' 
TCOON,ioos:station:TCOON:031:1,2013-08-01T00:48:00Z,28.4073,-96.7122,0.0,6.6,142.0,8.0,'11111222,11111222,11111222' 
TCOON,ioos:station:TCOON:031:1,2013-08-01T00:54:00Z,28.4073,-96.7122,0.0,7.1,152.0,8.2,'11111222,11111222,11111222' 
TCOON,ioos:station:TCOON:031:1,2013-08-01T01:00:00Z,28.4073,-96.7122,0.0,6.9,141.0,8.2,'11111222,11111222,11111222' 
TCOON,ioos:station:TCOON:031:1,2013-08-01T01:06:00Z,28.4073,-96.7122,0.0,6.7,146.0,8.1,'11111222,11111222,11111222' 
TCOON,ioos:station:TCOON:031:1,2013-08-01T01:12:00Z,28.4073,-96.7122,0.0,6.3,145.0,8.0,'11111222,11111222,11111222' 
TCOON,ioos:station:TCOON:031:1,2013-08-01T01:18:00Z,28.4073,-96.7122,0.0,7.5,145.0,8.3,'11111222,11111222,11111222' 
TCOON,ioos:station:TCOON:031:1,2013-08-01T01:24:00Z,28.4073,-96.7122,0.0,7.5,143.0,8.3,'11111222,11111222,11111222' 
TCOON,ioos:station:TCOON:031:1,2013-08-01T01:30:00Z,28.4073,-96.7122,0.0,6.6,141.0,7.8,'11111222,11111222,11111222' 
TCOON,ioos:station:TCOON:031:1,2013-08-01T01:36:00Z,28.4073,-96.7122,0.0,5.7,141.0,7.5,'11111222,11111222,11111222' 
TCOON,ioos:station:TCOON:031:1,2013-08-01T01:42:00Z,28.4073,-96.7122,0.0,5.6,143.0,7.5,'11111222,11111222,11111222' 
TCOON,ioos:station:TCOON:031:1,2013-08-01T01:48:00Z,28.4073,-96.7122,0.0,6.5,140.0,8.1,'11111222,11111222,11111222' 
TCOON,ioos:station:TCOON:031:1,2013-08-01T01:54:00Z,28.4073,-96.7122,0.0,5.1,137.0,6.9,'11111222,11111222,11111222' 
TCOON,ioos:station:TCOON:031:1,2013-08-01T02:00:00Z,28.4073,-96.7122,0.0,5.5,142.0,6.9,'11111222,11111222,11111222' 
TCOON,ioos:station:TCOON:031:1,2013-08-01T02:06:00Z,28.4073,-96.7122,0.0,6.4,146.0,7.5,'11111222,11111222,11111222' 
TCOON,ioos:station:TCOON:031:1,2013-08-01T02:12:00Z,28.4073,-96.7122,0.0,6.0,143.0,7.5,'11111222,11111222,11111222' 
TCOON,ioos:station:TCOON:031:1,2013-08-01T02:18:00Z,28.4073,-96.7122,0.0,7.0,148.0,8.2,'11111222,11111222,11111222' 
TCOON,ioos:station:TCOON:031:1,2013-08-01T02:24:00Z,28.4073,-96.7122,0.0,5.8,141.0,7.2,'11111222,11111222,11111222' 
TCOON,ioos:station:TCOON:031:1,2013-08-01T02:30:00Z,28.4073,-96.7122,0.0,6.0,144.0,7.3,'11111222,11111222,11111222' 
TCOON,ioos:station:TCOON:031:1,2013-08-01T02:36:00Z,28.4073,-96.7122,0.0,6.6,145.0,7.7,'11111222,11111222,11111222' 
TCOON,ioos:station:TCOON:031:1,2013-08-01T02:42:00Z,28.4073,-96.7122,0.0,5.7,143.0,7.9,'11111222,11111222,11111222' 
TCOON,ioos:station:TCOON:031:1,2013-08-01T02:48:00Z,28.4073,-96.7122,0.0,6.2,143.0,7.8,'11111222,11111222,11111222' 
TCOON,ioos:station:TCOON:031:1,2013-08-01T02:54:00Z,28.4073,-96.7122,0.0,5.7,143.0,6.7,'11111222,11111222,11111222' 
TCOON,ioos:station:TCOON:031:1,2013-08-01T03:00:00Z,28.4073,-96.7122,0.0,5.6,140.0,6.7,'11111222,11111222,11111222' 
TCOON,ioos:station:TCOON:031:1,2013-08-01T03:06:00Z,28.4073,-96.7122,0.0,4.3,137.0,5.8,'11111222,11111222,11111222' 
TCOON,ioos:station:TCOON:031:1,2013-08-01T03:12:00Z,28.4073,-96.7122,0.0,4.7,139.0,5.9,'11111222,11111222,11111222' 
TCOON,ioos:station:TCOON:031:1,2013-08-01T03:18:00Z,28.4073,-96.7122,0.0,4.8,140.0,5.7,'11111222,11111222,11111222' 
TCOON,ioos:station:TCOON:031:1,2013-08-01T03:24:00Z,28.4073,-96.7122,0.0,4.4,140.0,5.9,'11111222,11111222,11111222' 
TCOON,ioos:station:TCOON:031:1,2013-08-01T03:30:00Z,28.4073,-96.7122,0.0,5.2,143.0,6.7,'11111222,11111222,11111222' 
TCOON,ioos:station:TCOON:031:1,2013-08-01T03:36:00Z,28.4073,-96.7122,0.0,5.6,143.0,6.5,'11111222,11111222,11111222' 
TCOON,ioos:station:TCOON:031:1,2013-08-01T03:42:00Z,28.4073,-96.7122,0.0,4.6,138.0,5.5,'11111222,11111222,11111222' 
TCOON,ioos:station:TCOON:031:1,2013-08-01T03:48:00Z,28.4073,-96.7122,0.0,4.7,137.0,7.0,'11111222,11111222,11111222' 
TCOON,ioos:station:TCOON:031:1,2013-08-01T03:54:00Z,28.4073,-96.7122,0.0,5.1,140.0,5.7,'11111222,11111222,11111222' 
TCOON,ioos:station:TCOON:031:1,2013-08-01T04:00:00Z,28.4073,-96.7122,0.0,5.5,143.0,6.6,'11111222,11111222,11111222' 
TCOON,ioos:station:TCOON:031:1,2013-08-01T04:06:00Z,28.4073,-96.7122,0.0,5.6,145.0,6.9,'11111222,11111222,11111222' 
TCOON,ioos:station:TCOON:031:1,2013-08-01T04:12:00Z,28.4073,-96.7122,0.0,5.1,146.0,6.9,'11111222,11111222,11111222' 
TCOON,ioos:station:TCOON:031:1,2013-08-01T04:18:00Z,28.4073,-96.7122,0.0,6.5,149.0,7.8,'11111222,11111222,11111222' 
TCOON,ioos:station:TCOON:031:1,2013-08-01T04:24:00Z,28.4073,-96.7122,0.0,6.1,146.0,7.2,'11111222,11111222,11111222' 
TCOON,ioos:station:TCOON:031:1,2013-08-01T04:30:00Z,28.4073,-96.7122,0.0,6.7,151.0,7.8,'11111222,11111222,11111222' 
TCOON,ioos:station:TCOON:031:1,2013-08-01T04:36:00Z,28.4073,-96.7122,0.0,7.0,151.0,7.6,'11111222,11111222,11111222' 
TCOON,ioos:station:TCOON:031:1,2013-08-01T04:42:00Z,28.4073,-96.7122,0.0,6.4,152.0,7.6,'11111222,11111222,11111222' 
TCOON,ioos:station:TCOON:031:1,2013-08-01T04:48:00Z,28.4073,-96.7122,0.0,6.0,154.0,8.0,'11111222,11111222,11111222' 
TCOON,ioos:station:TCOON:031:1,2013-08-01T04:54:00Z,28.4073,-96.7122,0.0,6.0,148.0,7.9,'11111222,11111222,11111222' 
TCOON,ioos:station:TCOON:031:1,2013-08-01T05:00:00Z,28.4073,-96.7122,0.0,5.5,152.0,6.9,'11111222,11111222,11111222' 
TCOON,ioos:station:TCOON:031:1,2013-08-01T05:06:00Z,28.4073,-96.7122,0.0,5.7,149.0,7.0,'11111222,11111222,11111222' 
TCOON,ioos:station:TCOON:031:1,2013-08-01T05:12:00Z,28.4073,-96.7122,0.0,6.3,153.0,7.6,'11111222,11111222,11111222' 
TCOON,ioos:station:TCOON:031:1,2013-08-01T05:18:00Z,28.4073,-96.7122,0.0,6.8,156.0,8.1,'11111222,11111222,11111222' 
TCOON,ioos:station:TCOON:031:1,2013-08-01T05:24:00Z,28.4073,-96.7122,0.0,7.3,157.0,8.2,'11111222,11111222,11111222' 
TCOON,ioos:station:TCOON:031:1,2013-08-01T05:30:00Z,28.4073,-96.7122,0.0,7.3,162.0,8.8,'11111222,11111222,11111222' 
TCOON,ioos:station:TCOON:031:1,2013-08-01T05:36:00Z,28.4073,-96.7122,0.0,7.5,163.0,9.1,'11111222,11111222,11111222' 
TCOON,ioos:station:TCOON:031:1,2013-08-01T05:42:00Z,28.4073,-96.7122,0.0,7.7,158.0,8.6,'11111222,11111222,11111222' 
TCOON,ioos:station:TCOON:031:1,2013-08-01T05:48:00Z,28.4073,-96.7122,0.0,7.1,164.0,8.4,'11111222,11111222,11111222' 
TCOON,ioos:station:TCOON:031:1,2013-08-01T05:54:00Z,28.4073,-96.7122,0.0,8.2,165.0,8.9,'11111222,11111222,11111222' 
TCOON,ioos:station:TCOON:031:1,2013-08-01T06:00:00Z,28.4073,-96.7122,0.0,7.8,167.0,8.7,'11111222,11111222,11111222' 
TCOON,ioos:station:TCOON:031:1,2013-08-01T06:06:00Z,28.4073,-96.7122,0.0,7.8,161.0,9.0,'11111222,11111222,11111222' 
TCOON,ioos:station:TCOON:031:1,2013-08-01T06:12:00Z,28.4073,-96.7122,0.0,7.3,160.0,8.9,'11111222,11111222,11111222' 
TCOON,ioos:station:TCOON:031:1,2013-08-01T06:18:00Z,28.4073,-96.7122,0.0,7.2,161.0,8.2,'11111222,11111222,11111222' 
TCOON,ioos:station:TCOON:031:1,2013-08-01T06:24:00Z,28.4073,-96.7122,0.0,7.3,162.0,8.1,'11111222,11111222,11111222' 
TCOON,ioos:station:TCOON:031:1,2013-08-01T06:30:00Z,28.4073,-96.7122,0.0,6.9,157.0,8.3,'11111222,11111222,11111222' 
TCOON,ioos:station:TCOON:031:1,2013-08-01T06:36:00Z,28.4073,-96.7122,0.0,6.9,166.0,7.8,'11111222,11111222,11111222' 
TCOON,ioos:station:TCOON:031:1,2013-08-01T06:42:00Z,28.4073,-96.7122,0.0,7.4,163.0,8.6,'11111222,11111222,11111222' 
TCOON,ioos:station:TCOON:031:1,2013-08-01T06:48:00Z,28.4073,-96.7122,0.0,7.1,162.0,8.1,'11111222,11111222,11111222' 
TCOON,ioos:station:TCOON:031:1,2013-08-01T06:54:00Z,28.4073,-96.7122,0.0,6.8,167.0,7.7,'11111222,11111222,11111222' 
TCOON,ioos:station:TCOON:031:1,2013-08-01T07:00:00Z,28.4073,-96.7122,0.0,7.8,169.0,8.9,'11111222,11111222,11111222' 
TCOON,ioos:station:TCOON:031:1,2013-08-01T07:06:00Z,28.4073,-96.7122,0.0,7.4,169.0,8.4,'11111222,11111222,11111222' 
TCOON,ioos:station:TCOON:031:1,2013-08-01T07:12:00Z,28.4073,-96.7122,0.0,8.0,173.0,9.1,'11111222,11111222,11111222' 
TCOON,ioos:station:TCOON:031:1,2013-08-01T07:18:00Z,28.4073,-96.7122,0.0,7.0,177.0,8.5,'11111222,11111222,11111222' 
TCOON,ioos:station:TCOON:031:1,2013-08-01T07:24:00Z,28.4073,-96.7122,0.0,7.5,178.0,8.5,'11111222,11111222,11111222' 
TCOON,ioos:station:TCOON:031:1,2013-08-01T07:30:00Z,28.4073,-96.7122,0.0,6.7,170.0,8.6,'11111222,11111222,11111222' 
TCOON,ioos:station:TCOON:031:1,2013-08-01T07:36:00Z,28.4073,-96.7122,0.0,7.8,176.0,8.7,'11111222,11111222,11111222' 
TCOON,ioos:station:TCOON:031:1,2013-08-01T07:42:00Z,28.4073,-96.7122,0.0,6.9,181.0,8.5,'11111222,11111222,11111222' 
TCOON,ioos:station:TCOON:031:1,2013-08-01T07:48:00Z,28.4073,-96.7122,0.0,7.0,168.0,8.3,'11111222,11111222,11111222' 
TCOON,ioos:station:TCOON:031:1,2013-08-01T07:54:00Z,28.4073,-96.7122,0.0,6.7,171.0,8.2,'11111222,11111222,11111222' 
TCOON,ioos:station:TCOON:031:1,2013-08-01T08:00:00Z,28.4073,-96.7122,0.0,7.9,166.0,8.8,'11111222,11111222,11111222' 
TCOON,ioos:station:TCOON:031:1,2013-08-01T08:06:00Z,28.4073,-96.7122,0.0,7.5,167.0,8.4,'11111222,11111222,11111222' 
TCOON,ioos:station:TCOON:031:1,2013-08-01T08:12:00Z,28.4073,-96.7122,0.0,7.7,176.0,8.7,'11111222,11111222,11111222' 
TCOON,ioos:station:TCOON:031:1,2013-08-01T08:18:00Z,28.4073,-96.7122,0.0,7.5,173.0,9.1,'11111222,11111222,11111222' 
TCOON,ioos:station:TCOON:031:1,2013-08-01T08:24:00Z,28.4073,-96.7122,0.0,7.2,178.0,8.5,'11111222,11111222,11111222' 
TCOON,ioos:station:TCOON:031:1,2013-08-01T08:30:00Z,28.4073,-96.7122,0.0,7.5,172.0,8.4,'11111222,11111222,11111222' 
TCOON,ioos:station:TCOON:031:1,2013-08-01T08:36:00Z,28.4073,-96.7122,0.0,7.3,184.0,9.2,'11111222,11111222,11111222' 
TCOON,ioos:station:TCOON:031:1,2013-08-01T08:42:00Z,28.4073,-96.7122,0.0,6.3,174.0,8.1,'11111222,11111222,11111222' 
TCOON,ioos:station:TCOON:031:1,2013-08-01T08:48:00Z,28.4073,-96.7122,0.0,6.1,181.0,7.5,'11111222,11111222,11111222' 
TCOON,ioos:station:TCOON:031:1,2013-08-01T08:54:00Z,28.4073,-96.7122,0.0,6.9,178.0,8.1,'11111222,11111222,11111222' 
TCOON,ioos:station:TCOON:031:1,2013-08-01T09:00:00Z,28.4073,-96.7122,0.0,6.3,180.0,7.7,'11111222,11111222,11111222' 
TCOON,ioos:station:TCOON:031:1,2013-08-01T09:06:00Z,28.4073,-96.7122,0.0,6.6,183.0,8.6,'11111222,11111222,11111222' 
TCOON,ioos:station:TCOON:031:1,2013-08-01T09:12:00Z,28.4073,-96.7122,0.0,6.1,180.0,7.9,'11111222,11111222,11111222' 
TCOON,ioos:station:TCOON:031:1,2013-08-01T09:18:00Z,28.4073,-96.7122,0.0,7.6,183.0,8.6,'11111222,11111222,11111222' 
TCOON,ioos:station:TCOON:031:1,2013-08-01T09:24:00Z,28.4073,-96.7122,0.0,7.9,175.0,8.5,'11111222,11111222,11111222' 
TCOON,ioos:station:TCOON:031:1,2013-08-01T09:30:00Z,28.4073,-96.7122,0.0,7.0,186.0,9.2,'11111222,11111222,11111222' 
TCOON,ioos:station:TCOON:031:1,2013-08-01T09:36:00Z,28.4073,-96.7122,0.0,7.5,181.0,9.2,'11111222,11111222,11111222' 
TCOON,ioos:station:TCOON:031:1,2013-08-01T09:42:00Z,28.4073,-96.7122,0.0,7.2,184.0,9.3,'11111222,11111222,11111222' 
TCOON,ioos:station:TCOON:031:1,2013-08-01T09:48:00Z,28.4073,-96.7122,0.0,7.5,175.0,9.0,'11111222,11111222,11111222' 
TCOON,ioos:station:TCOON:031:1,2013-08-01T09:54:00Z,28.4073,-96.7122,0.0,7.4,178.0,8.7,'11111222,11111222,11111222' 
TCOON,ioos:station:TCOON:031:1,2013-08-01T10:00:00Z,28.4073,-96.7122,0.0,7.7,180.0,8.5,'11111222,11111222,11111222' 
TCOON,ioos:station:TCOON:031:1,2013-08-01T10:06:00Z,28.4073,-96.7122,0.0,7.9,182.0,8.8,'11111222,11111222,11111222' 
TCOON,ioos:station:TCOON:031:1,2013-08-01T10:12:00Z,28.4073,-96.7122,0.0,7.6,180.0,8.6,'11111222,11111222,11111222' 
TCOON,ioos:station:TCOON:031:1,2013-08-01T10:18:00Z,28.4073,-96.7122,0.0,6.9,187.0,8.5,'11111222,11111222,11111222' 
TCOON,ioos:station:TCOON:031:1,2013-08-01T10:24:00Z,28.4073,-96.7122,0.0,7.3,191.0,8.9,'11111222,11111222,11111222' 
TCOON,ioos:station:TCOON:031:1,2013-08-01T10:30:00Z,28.4073,-96.7122,0.0,7.5,186.0,8.1,'11111222,11111222,11111222' 
TCOON,ioos:station:TCOON:031:1,2013-08-01T10:36:00Z,28.4073,-96.7122,0.0,7.3,182.0,8.4,'11111222,11111222,11111222' 
TCOON,ioos:station:TCOON:031:1,2013-08-01T10:42:00Z,28.4073,-96.7122,0.0,6.6,192.0,8.7,'11111222,11111222,11111222' 
TCOON,ioos:station:TCOON:031:1,2013-08-01T10:48:00Z,28.4073,-96.7122,0.0,7.3,191.0,8.1,'11111222,11111222,11111222' 
TCOON,ioos:station:TCOON:031:1,2013-08-01T10:54:00Z,28.4073,-96.7122,0.0,6.5,183.0,8.0,'11111222,11111222,11111222' 
TCOON,ioos:station:TCOON:031:1,2013-08-01T11:00:00Z,28.4073,-96.7122,0.0,7.6,183.0,8.3,'11111222,11111222,11111222' 
TCOON,ioos:station:TCOON:031:1,2013-08-01T11:06:00Z,28.4073,-96.7122,0.0,6.2,193.0,9.3,'11111222,11111222,11111222' 
TCOON,ioos:station:TCOON:031:1,2013-08-01T11:12:00Z,28.4073,-96.7122,0.0,6.1,189.0,6.8,'11111222,11111222,11111222' 
TCOON,ioos:station:TCOON:031:1,2013-08-01T11:18:00Z,28.4073,-96.7122,0.0,6.7,197.0,7.2,'11111222,11111222,11111222' 
TCOON,ioos:station:TCOON:031:1,2013-08-01T11:24:00Z,28.4073,-96.7122,0.0,5.7,194.0,7.5,'11111222,11111222,11111222' 
TCOON,ioos:station:TCOON:031:1,2013-08-01T11:30:00Z,28.4073,-96.7122,0.0,5.8,195.0,7.1,'11111222,11111222,11111222' 
TCOON,ioos:station:TCOON:031:1,2013-08-01T11:36:00Z,28.4073,-96.7122,0.0,5.7,192.0,6.8,'11111222,11111222,11111222' 
TCOON,ioos:station:TCOON:031:1,2013-08-01T11:42:00Z,28.4073,-96.7122,0.0,6.1,197.0,6.8,'11111222,11111222,11111222' 
TCOON,ioos:station:TCOON:031:1,2013-08-01T11:48:00Z,28.4073,-96.7122,0.0,5.6,191.0,6.7,'11111222,11111222,11111222' 
TCOON,ioos:station:TCOON:031:1,2013-08-01T11:54:00Z,28.4073,-96.7122,0.0,5.7,186.0,6.6,'11111222,11111222,11111222' 
TCOON,ioos:station:TCOON:031:1,2013-08-01T12:00:00Z,28.4073,-96.7122,0.0,5.9,202.0,7.1,'11111222,11111222,11111222' 
TCOON,ioos:station:TCOON:031:1,2013-08-01T12:06:00Z,28.4073,-96.7122,0.0,5.3,197.0,7.2,'11111222,11111222,11111222' 
TCOON,ioos:station:TCOON:031:1,2013-08-01T12:12:00Z,28.4073,-96.7122,0.0,6.8,188.0,8.0,'11111222,11111222,11111222' 
TCOON,ioos:station:TCOON:031:1,2013-08-01T12:18:00Z,28.4073,-96.7122,0.0,5.8,200.0,7.5,'11111222,11111222,11111222' 
TCOON,ioos:station:TCOON:031:1,2013-08-01T12:24:00Z,28.4073,-96.7122,0.0,5.1,201.0,6.6,'11111222,11111222,11111222' 
TCOON,ioos:station:TCOON:031:1,2013-08-01T12:30:00Z,28.4073,-96.7122,0.0,5.9,197.0,7.0,'11111222,11111222,11111222' 
TCOON,ioos:station:TCOON:031:1,2013-08-01T12:36:00Z,28.4073,-96.7122,0.0,5.3,206.0,6.2,'11111222,11111222,11111222' 
TCOON,ioos:station:TCOON:031:1,2013-08-01T12:42:00Z,28.4073,-96.7122,0.0,5.4,197.0,6.3,'11111222,11111222,11111222' 
TCOON,ioos:station:TCOON:031:1,2013-08-01T12:48:00Z,28.4073,-96.7122,0.0,5.6,207.0,6.4,'11111222,11111222,11111222' 
TCOON,ioos:station:TCOON:031:1,2013-08-01T12:54:00Z,28.4073,-96.7122,0.0,5.1,210.0,6.3,'11111222,11111222,11111222' 
TCOON,ioos:station:TCOON:031:1,2013-08-01T13:00:00Z,28.4073,-96.7122,0.0,5.5,210.0,6.8,'11111222,11111222,11111222' 
TCOON,ioos:station:TCOON:031:1,2013-08-01T13:06:00Z,28.4073,-96.7122,0.0,5.6,215.0,6.5,'11111222,11111222,11111222' 
TCOON,ioos:station:TCOON:031:1,2013-08-01T13:12:00Z,28.4073,-96.7122,0.0,4.9,206.0,5.7,'11111222,11111222,11111222' 
TCOON,ioos:station:TCOON:031:1,2013-08-01T13:18:00Z,28.4073,-96.7122,0.0,3.8,217.0,5.3,'11111222,11111222,11111222' 
TCOON,ioos:station:TCOON:031:1,2013-08-01T13:24:00Z,28.4073,-96.7122,0.0,3.7,221.0,4.5,'11111222,11111222,11111222' 
TCOON,ioos:station:TCOON:031:1,2013-08-01T13:30:00Z,28.4073,-96.7122,0.0,4.0,215.0,4.6,'11111222,11111222,11111222' 
TCOON,ioos:station:TCOON:031:1,2013-08-01T13:36:00Z,28.4073,-96.7122,0.0,3.3,212.0,3.8,'11111222,11111222,11111222' 
TCOON,ioos:station:TCOON:031:1,2013-08-01T13:42:00Z,28.4073,-96.7122,0.0,3.2,205.0,3.9,'11111222,11111222,11111222' 
TCOON,ioos:station:TCOON:031:1,2013-08-01T13:48:00Z,28.4073,-96.7122,0.0,3.1,219.0,3.6,'11111222,11111222,11111222' 
TCOON,ioos:station:TCOON:031:1,2013-08-01T13:54:00Z,28.4073,-96.7122,0.0,3.4,202.0,4.0,'11111222,11111222,11111222' 
TCOON,ioos:station:TCOON:031:1,2013-08-01T14:00:00Z,28.4073,-96.7122,0.0,3.1,202.0,3.8,'11111222,11111222,11111222' 
TCOON,ioos:station:TCOON:031:1,2013-08-01T14:06:00Z,28.4073,-96.7122,0.0,3.5,211.0,4.0,'11111222,11111222,11111222' 
TCOON,ioos:station:TCOON:031:1,2013-08-01T14:12:00Z,28.4073,-96.7122,0.0,3.2,214.0,3.8,'11111222,11111222,11111222' 
TCOON,ioos:station:TCOON:031:1,2013-08-01T14:18:00Z,28.4073,-96.7122,0.0,2.3,200.0,3.6,'11111222,11111222,11111222' 
TCOON,ioos:station:TCOON:031:1,2013-08-01T14:24:00Z,28.4073,-96.7122,0.0,2.1,201.0,3.0,'11111222,11111222,11111222' 
TCOON,ioos:station:TCOON:031:1,2013-08-01T14:30:00Z,28.4073,-96.7122,0.0,2.9,204.0,3.3,'11111222,11111222,11111222' 
TCOON,ioos:station:TCOON:031:1,2013-08-01T14:36:00Z,28.4073,-96.7122,0.0,2.3,205.0,3.4,'11111222,11111222,11111222' 
TCOON,ioos:station:TCOON:031:1,2013-08-01T14:42:00Z,28.4073,-96.7122,0.0,3.0,203.0,3.5,'11111222,11111222,11111222' 
TCOON,ioos:station:TCOON:031:1,2013-08-01T14:48:00Z,28.4073,-96.7122,0.0,2.3,203.0,3.4,'11111222,11111222,11111222' 
TCOON,ioos:station:TCOON:031:1,2013-08-01T14:54:00Z,28.4073,-96.7122,0.0,3.3,205.0,3.8,'11111222,11111222,11111222' 
TCOON,ioos:station:TCOON:031:1,2013-08-01T15:00:00Z,28.4073,-96.7122,0.0,3.5,196.0,3.9,'11111222,11111222,11111222' 
TCOON,ioos:station:TCOON:031:1,2013-08-01T15:06:00Z,28.4073,-96.7122,0.0,3.4,186.0,3.8,'11111222,11111222,11111222' 
TCOON,ioos:station:TCOON:031:1,2013-08-01T15:12:00Z,28.4073,-96.7122,0.0,2.8,185.0,3.4,'11111222,11111222,11111222' 
TCOON,ioos:station:TCOON:031:1,2013-08-01T15:18:00Z,28.4073,-96.7122,0.0,2.8,173.0,3.8,'11111222,11111222,11111222' 
TCOON,ioos:station:TCOON:031:1,2013-08-01T15:24:00Z,28.4073,-96.7122,0.0,2.9,180.0,3.4,'11111222,11111222,11111222' 
TCOON,ioos:station:TCOON:031:1,2013-08-01T15:30:00Z,28.4073,-96.7122,0.0,3.4,185.0,4.4,'11111222,11111222,11111222' 
TCOON,ioos:station:TCOON:031:1,2013-08-01T15:36:00Z,28.4073,-96.7122,0.0,2.7,172.0,4.2,'11111222,11111222,11111222' 
TCOON,ioos:station:TCOON:031:1,2013-08-01T15:42:00Z,28.4073,-96.7122,0.0,3.4,183.0,3.9,'11111222,11111222,11111222' 
TCOON,ioos:station:TCOON:031:1,2013-08-01T15:48:00Z,28.4073,-96.7122,0.0,2.9,178.0,3.8,'11111222,11111222,11111222' 
TCOON,ioos:station:TCOON:031:1,2013-08-01T15:54:00Z,28.4073,-96.7122,0.0,3.1,170.0,3.6,'11111222,11111222,11111222' 
TCOON,ioos:station:TCOON:031:1,2013-08-01T16:00:00Z,28.4073,-96.7122,0.0,2.3,161.0,3.0,'11111222,11111222,11111222' 
TCOON,ioos:station:TCOON:031:1,2013-08-01T16:06:00Z,28.4073,-96.7122,0.0,1.7,164.0,2.7,'11111222,11111222,11111222' 
TCOON,ioos:station:TCOON:031:1,2013-08-01T16:12:00Z,28.4073,-96.7122,0.0,2.2,151.0,2.7,'11111222,11111222,11111222' 
TCOON,ioos:station:TCOON:031:1,2013-08-01T16:18:00Z,28.4073,-96.7122,0.0,2.6,151.0,3.0,'11111222,11111222,11111222' 
TCOON,ioos:station:TCOON:031:1,2013-08-01T16:24:00Z,28.4073,-96.7122,0.0,1.9,163.0,2.5,'11111222,11111222,11111222' 
TCOON,ioos:station:TCOON:031:1,2013-08-01T16:30:00Z,28.4073,-96.7122,0.0,2.5,179.0,2.9,'11111222,11111222,11111222' 
TCOON,ioos:station:TCOON:031:1,2013-08-01T16:36:00Z,28.4073,-96.7122,0.0,3.2,182.0,3.6,'11111222,11111222,11111222' 
TCOON,ioos:station:TCOON:031:1,2013-08-01T16:42:00Z,28.4073,-96.7122,0.0,2.9,181.0,3.4,'11111222,11111222,11111222' 
TCOON,ioos:station:TCOON:031:1,2013-08-01T16:48:00Z,28.4073,-96.7122,0.0,3.5,173.0,3.8,'11111222,11111222,11111222' 
TCOON,ioos:station:TCOON:031:1,2013-08-01T16:54:00Z,28.4073,-96.7122,0.0,2.4,160.0,3.5,'11111222,11111222,11111222' 
TCOON,ioos:station:TCOON:031:1,2013-08-01T17:00:00Z,28.4073,-96.7122,0.0,3.2,178.0,3.6,'11111222,11111222,11111222' 
TCOON,ioos:station:TCOON:031:1,2013-08-01T17:06:00Z,28.4073,-96.7122,0.0,3.4,187.0,4.0,'11111222,11111222,11111222' 
TCOON,ioos:station:TCOON:031:1,2013-08-01T17:12:00Z,28.4073,-96.7122,0.0,3.2,176.0,4.2,'11111222,11111222,11111222' 
TCOON,ioos:station:TCOON:031:1,2013-08-01T17:18:00Z,28.4073,-96.7122,0.0,3.2,172.0,4.0,'11111222,11111222,11111222' 
TCOON,ioos:station:TCOON:031:1,2013-08-01T17:24:00Z,28.4073,-96.7122,0.0,3.4,166.0,3.8,'11111222,11111222,11111222' 
TCOON,ioos:station:TCOON:031:1,2013-08-01T17:30:00Z,28.4073,-96.7122,0.0,3.2,174.0,4.0,'11111222,11111222,11111222' 
TCOON,ioos:station:TCOON:031:1,2013-08-01T17:36:00Z,28.4073,-96.7122,0.0,3.5,170.0,4.2,'11111222,11111222,11111222' 
TCOON,ioos:station:TCOON:031:1,2013-08-01T17:42:00Z,28.4073,-96.7122,0.0,3.8,171.0,4.4,'11111222,11111222,11111222' 
TCOON,ioos:station:TCOON:031:1,2013-08-01T17:48:00Z,28.4073,-96.7122,0.0,4.4,174.0,4.8,'11111222,11111222,11111222' 
TCOON,ioos:station:TCOON:031:1,2013-08-01T17:54:00Z,28.4073,-96.7122,0.0,3.9,173.0,4.7,'11111222,11111222,11111222' 
TCOON,ioos:station:TCOON:031:1,2013-08-01T18:00:00Z,28.4073,-96.7122,0.0,4.0,167.0,4.5,'11111222,11111222,11111222' 
TCOON,ioos:station:TCOON:031:1,2013-08-01T18:06:00Z,28.4073,-96.7122,0.0,4.3,173.0,4.8,'11111222,11111222,11111222' 
TCOON,ioos:station:TCOON:031:1,2013-08-01T18:12:00Z,28.4073,-96.7122,0.0,4.7,175.0,5.1,'11111222,11111222,11111222' 
TCOON,ioos:station:TCOON:031:1,2013-08-01T18:18:00Z,28.4073,-96.7122,0.0,4.3,170.0,5.2,'11111222,11111222,11111222' 
TCOON,ioos:station:TCOON:031:1,2013-08-01T18:24:00Z,28.4073,-96.7122,0.0,5.0,174.0,5.6,'11111222,11111222,11111222' 
TCOON,ioos:station:TCOON:031:1,2013-08-01T18:30:00Z,28.4073,-96.7122,0.0,5.4,177.0,6.1,'11111222,11111222,11111222' 
TCOON,ioos:station:TCOON:031:1,2013-08-01T18:36:00Z,28.4073,-96.7122,0.0,5.3,173.0,6.2,'11111222,11111222,11111222' 
TCOON,ioos:station:TCOON:031:1,2013-08-01T18:42:00Z,28.4073,-96.7122,0.0,5.2,171.0,5.9,'11111222,11111222,11111222' 
TCOON,ioos:station:TCOON:031:1,2013-08-01T18:48:00Z,28.4073,-96.7122,0.0,5.8,169.0,6.4,'11111222,11111222,11111222' 
TCOON,ioos:station:TCOON:031:1,2013-08-01T18:54:00Z,28.4073,-96.7122,0.0,6.3,172.0,6.6,'11111222,11111222,11111222' 
TCOON,ioos:station:TCOON:031:1,2013-08-01T19:00:00Z,28.4073,-96.7122,0.0,6.0,175.0,6.6,'11111222,11111222,11111222' 
TCOON,ioos:station:TCOON:031:1,2013-08-01T19:06:00Z,28.4073,-96.7122,0.0,5.6,166.0,6.7,'11111222,11111222,11111222' 
TCOON,ioos:station:TCOON:031:1,2013-08-01T19:12:00Z,28.4073,-96.7122,0.0,6.0,164.0,6.4,'11111222,11111222,11111222' 
TCOON,ioos:station:TCOON:031:1,2013-08-01T19:18:00Z,28.4073,-96.7122,0.0,6.2,169.0,6.9,'11111222,11111222,11111222' 
TCOON,ioos:station:TCOON:031:1,2013-08-01T19:24:00Z,28.4073,-96.7122,0.0,6.2,170.0,6.8,'11111222,11111222,11111222' 
TCOON,ioos:station:TCOON:031:1,2013-08-01T19:30:00Z,28.4073,-96.7122,0.0,6.5,176.0,6.9,'11111222,11111222,11111222' 
TCOON,ioos:station:TCOON:031:1,2013-08-01T19:36:00Z,28.4073,-96.7122,0.0,6.3,169.0,7.2,'11111222,11111222,11111222' 
TCOON,ioos:station:TCOON:031:1,2013-08-01T19:42:00Z,28.4073,-96.7122,0.0,6.5,167.0,7.3,'11111222,11111222,11111222' 
TCOON,ioos:station:TCOON:031:1,2013-08-01T19:48:00Z,28.4073,-96.7122,0.0,7.3,174.0,7.7,'11111222,11111222,11111222' 
TCOON,ioos:station:TCOON:031:1,2013-08-01T19:54:00Z,28.4073,-96.7122,0.0,7.4,167.0,8.3,'11111222,11111222,11111222' 
TCOON,ioos:station:TCOON:031:1,2013-08-01T20:00:00Z,28.4073,-96.7122,0.0,7.2,167.0,8.1,'11111222,11111222,11111222' 
TCOON,ioos:station:TCOON:031:1,2013-08-01T20:06:00Z,28.4073,-96.7122,0.0,7.3,162.0,8.3,'11111222,11111222,11111222' 
TCOON,ioos:station:TCOON:031:1,2013-08-01T20:12:00Z,28.4073,-96.7122,0.0,7.3,169.0,8.0,'11111222,11111222,11111222' 
TCOON,ioos:station:TCOON:031:1,2013-08-01T20:18:00Z,28.4073,-96.7122,0.0,7.6,167.0,8.4,'11111222,11111222,11111222' 